KBOI

Boise

Airport
ICAO code
KBOI
Summary
ICAO Region
NAM
ICAO Territory
Location

Ada County, Idaho,

Coordinates
43° 33' 52" N , 116° 13' 25" W
KCC
Airport CFIT
Altimeter Temperature Error Correction
Airport LOS
Parallel Runway Operation
Metar
Observation
KBOI 270353Z 00000KT 10SM CLR 02/M02 A3033 RMK AO2 SLP287 T00171017
Station
Boise, Boise Air Terminal
Date/Time
2023-01-27 03:53:00
Wind direction
Wind speed
00 kts
Lowest cloud amount
n/a
Temperature
1.7°C
Dew point
-1.7°C
Humidity
78%
Weather condition
n/a

Description

Boise Airport, also known as Boise Air Terminal or Gowen Field, is a joint civil-military, commercial and general aviation airport located 3 nm south of downtown Boise in Ada County, Idaho, USA.

Climatology

Cold Semi-arid climate (Köppen climate classification BSk). - Hot, sometimes extremely hot summers and cold, sometimes very cold winters. Some snowfall during the winter. Areas featuring cold semi-arid climates are sometimes subject to major temperature swings during a 24 hour period.

Airport map

Aerial View

SKYbrary Partners:

Safety knowledge contributed by: